#timestamp,LO_Frequency,Hit,StdDev 
1578484095.4,286046960.7,P
1578484115.2,286046961.8,P
1578484135.1,286046967.2,P
1578484136.0,286046967.2,Y
1578484155.8,286047006.0,P
1578484175.7,286047007.5,N
1578484195.5,286047007.0,N
1578484215.3,286047007.2,N
1578484235.2,286047004.9,N
1578484255.0,286047003.6,N
1578484255.9,286047003.6,N
1578484275.8,286047002.5,N
1578484295.6,286047002.1,N
1578484315.4,286047000.4,N
1578484335.3,286046998.3,N
1578484355.1,286046998.5,N
1578484375.8,286046998.9,N
1578484395.7,286046999.0,N
1578484415.5,286046998.2,N
1578484435.3,286046998.2,N
1578484455.2,286047000.8,N
1578484475.0,286046997.3,N
1578484475.9,286046997.3,N
1578484495.8,286046995.2,N
1578484515.6,286046996.1,N
1578484535.4,286046993.4,N
1578484555.3,286046994.1,N
1578484575.1,286046994.2,N
1578484595.8,286046994.2,N
1578484615.7,286046994.3,N
1578484635.5,286046995.5,N
1578484655.4,286046996.2,N
1578484675.2,286046995.5,N
1578484695.0,286046996.3,N
1578484695.9,286046996.3,N
1578484715.8,286046993.5,N
1578484735.6,286046993.4,N
1578484755.4,286046993.6,N
1578484775.3,286046992.7,N
1578484795.1,286046992.4,N
